Preview of NWS' New Version of Forecast
This preview is not operational and should not be used for support decisions.

Regional Weather Roundup (RWR)

Issued by National Weather Service (NWS)

                            
000
ASUS44 KMEG 212010
RWRTN 
TENNESSEE HOURLY STATE WEATHER ROUNDUP
NATIONAL WEATHER SERVICE MEMPHIS TN
300 PM CDT SAT SEP 21 2019

TNZ002-004-019-021-049-052-054-088>092-212100-
WEST TENNESSEE
  
CITY           SKY/WX    TMP DP  RH WIND       PRES   REMARKS
MEMPHIS INTL   FAIR      90  58  33 SE12      30.14F                  
NWS MEMPHIS      N/A     90 N/A N/A MISG        N/A                   
JACKSON        FAIR      90  59  35 S8        30.16F                  
DYERSBURG      FAIR      90  60  36 S10G16    30.15F                  
SOMERVILLE     MOSUNNY   90  57  33 S8G17     30.14F                  
COVINGTON      SUNNY     88  57  35 S9G16     30.14F                  
UNION CITY     SUNNY     90  59  35 VRB7G15   30.12F                  
BOLIVAR        MOSUNNY   88  57  35 S10       30.15F                  
PARIS          SUNNY     88  55  33 VRB7G15   30.15F                  
HUNTINGDON     SUNNY     88  57  35 S10G17    30.15F                  
LEXINGTON      SUNNY     88  55  33 VRB5G14   30.16F                  
SELMER         MOSUNNY   86  55  35 VRB6      30.16F                  
SAVANNAH       SUNNY     90  59  35 SW9G17    30.16F                  
$$

TNZ008-025-027-028-033-062-065-066-212100-
NORTH MIDDLE TENNESSEE
  
CITY           SKY/WX    TMP DP  RH WIND       PRES   REMARKS
NASHVILLE      FAIR      92  51  24 VRB6      30.18F                  
DICKSON        CLEAR     88  54  31 SW12      30.17F                  
PORTLAND       SUNNY     88  54  31 VRB7      30.19F                  
CLARKSVILLE    FAIR      89  55  31 CALM      30.16F                  
LEBANON        CLEAR     90  52  27 S10       30.16F                  
SMYRNA         FAIR      91  54  28 SE12      30.19F                  
MURFREESBORO   CLEAR     88  50  27 VRB6G16   30.17F                  
COOKEVILLE     SUNNY     88  54  31 VRB5G13   30.21F                  
LIVINGSTON     CLEAR     86  54  32 SW8       30.21F                  
CROSSVILLE     FAIR      83  55  38 VRB5      30.27F                  
ROCKWOOD       CLEAR     82  55  39 VRB7G13   30.26F                  
$$

TNZ061-075-076-078-094-096-097-212100-
SOUTH MIDDLE TENNESSEE
  
CITY           SKY/WX    TMP DP  RH WIND       PRES   REMARKS
LAWRENCEBURG   CLEAR     88  52  29 S8G16     30.19F                  
LEWISBURG      CLEAR     88  55  33 VRB3      30.18F                  
FAYETTEVILLE   SUNNY     86  54  32 SW7G15    30.20F                  
TULLAHOMA      SUNNY     86  54  32 SW7G14    30.20F                  
WINCHESTER     SUNNY     88  48  25 SE13      30.19F                  
MCMINNVILLE    SUNNY     88  52  29 SE6G12    30.20F                  
COLUMBIA       SUNNY     90  50  25 S9        30.16F                  
SHELBYVILLE    SUNNY     88  55  33 S8        30.19F                  
$$

TNZ017-018-042-046-047-212100-
NORTHEAST TENNESSEE
  
CITY           SKY/WX    TMP DP  RH WIND       PRES   REMARKS
TRI CITIES     FAIR      86  60  41 S6        30.25F                  
ELIZABETHTON   FAIR      86  59  39 SW9       30.24F                  
GREENEVILLE    PTCLDY    84  57  39 NW5       30.25F                  
$$

TNZ012-013-036-069-073-074-212100-
CENTRAL EAST TENNESSEE
  
CITY           SKY/WX    TMP DP  RH WIND       PRES   REMARKS
KNOXVILLE      FAIR      87  56  34 W7        30.22F                  
OAK RIDGE      FAIR      87  58  37 MISG      30.24F                  
DOWNTOWN KNOXV MOSUNNY   88  59  37 CALM      30.22F                  
GATLINBURG     SUNNY     90  59  35 W5G12     30.21F                  
MORRISTOWN     SUNNY     86  57  37 VRB5      30.23F                  
JACKSBORO      SUNNY     86  59  39 S5        30.26F                  
$$

TNZ083-085-099-212100-
SOUTHEAST TENNESSEE
  
CITY           SKY/WX    TMP DP  RH WIND       PRES   REMARKS
CHATTANOOGA    FAIR      88  56  33 SE8       30.22F                  
$$

SKY/WX REPORTED AS FAIR MEANS FEW OR NO CLOUDS BELOW
12 THOUSAND FEET.